Location: Bridgewater
(44.3670°N, 64.5170°W)
Time: 10:11:09
(UTC-04:00)

Amateur Radio Satellites - All Passes

Search period start: 22 November 2014 09:41
Search period end: 23 November 2014 09:41
Location: Bridgewater, 44.3670°N, 64.5170°W

Satellite Date Start Highest point End Downlink Frequencies (MHz)
Time Altitude Azimuth
GOMX 1 22 Nov 09:43:27 09:47:37 88° 105° (ESE) 09:51:48 467.674
CANX-2 22 Nov 09:46:40 09:50:51 52° 287° (WNW) 09:55:01 2200.000
ZACube-1 22 Nov 09:49:50 09:53:10 23° 94° (E) 09:56:32 437.345
AAUSAT CUBESAT 2 22 Nov 09:50:17 09:54:32 79° 284° (WNW) 09:58:45 437.432
BRITE-PL 22 Nov 09:50:21 09:54:27 56° 287° (WNW) 09:58:29 437.365/2234.400
ANTELSAT 22 Nov 09:55:31 09:59:46 65° 74° (ENE) 10:04:01 437.575/2403.000
NANOSAT C BR1 22 Nov 09:57:09 10:01:15 48° 72° (ENE) 10:05:21 145.865
AISAT 22 Nov 09:59:47 10:03:00 19° 93° (E) 10:06:10 437.250
COMPASS 1 22 Nov 10:02:40 10:06:47 51° 287° (WNW) 10:10:54 437.405
HUMSAT D 22 Nov 10:05:33 10:08:40 20° 93° (E) 10:11:48 437.325/437.525
QB50P1 22 Nov 10:06:19 10:10:31 60° 73° (ENE) 10:14:44 145.935-145.965
DELFI C3 22 Nov 10:17:08 10:21:18 89° 103° (ESE) 10:25:26 145.870
CUTE 1.7 & AOD 2 22 Nov 10:22:27 10:25:57 25° 293° (WNW) 10:29:28 437.475
50 SAT 22 Nov 10:22:43 10:26:07 25° 95° (E) 10:29:31 437.505
FUNcube-1 22 Nov 10:25:33 10:29:40 54° 100° (E) 10:33:50 145.935
CINEMA 3 22 Nov 10:28:59 10:33:07 64° 286° (WNW) 10:37:19 145.822/145.860
CUBEBUG 1 22 Nov 10:29:28 10:31:50 14° 90° (E) 10:34:12 437.445
UKube-1 22 Nov 10:29:37 10:33:57 70° 286° (WNW) 10:38:15 .
POPSAT HIP 1 22 Nov 10:30:28 10:34:45 75° 258° (WSW) 10:39:01 437.405
CUBEBUG 2 22 Nov 10:31:35 10:35:47 87° 103° (ESE) 10:40:04 437.445
HO-68 22 Nov 10:33:01 10:39:41 43° 297° (WNW) 10:46:20 435.675
BUGSAT 1 22 Nov 10:39:24 10:43:40 71° 258° (WSW) 10:47:56 437.445
UWE-3 22 Nov 10:40:48 10:45:01 86° 284° (WNW) 10:49:17 435.000/436.395/437.385
Oscar 11 22 Nov 10:44:25 10:48:31 42° 289° (WNW) 10:52:36 145.826/435.025
TIGRISAT 22 Nov 10:53:22 10:57:09 30° 264° (W) 11:00:57 435.000
ESTCUBE 1 22 Nov 10:55:31 10:59:28 29° 95° (E) 11:03:23 437.505/2401.250
DOVE 4 22 Nov 10:59:49 11:02:51 20° 295° (WNW) 11:05:55 437.250
DX 1 22 Nov 11:01:14 11:05:08 32° 292° (WNW) 11:09:00 434.975-435.025
POLYITAN 1 22 Nov 11:01:54 11:05:47 34° 263° (W) 11:09:41 437.675
SEEDS 22 Nov 11:02:24 11:04:10 12° 299° (WNW) 11:05:57 437.485
UNISAT 6 22 Nov 11:05:03 11:08:29 23° 266° (W) 11:11:56 437.425
QB50P2 22 Nov 11:05:48 11:09:36 31° 264° (W) 11:13:24 145.880/145.840
VELOX 1 22 Nov 11:11:51 11:16:18 77° 285° (WNW) 11:20:42 145.980
DUCHIFAT 1 22 Nov 11:14:58 11:18:31 25° 265° (W) 11:22:05 145.980
GONETS M04 22 Nov 11:17:02 11:23:00 20° 302° (WNW) 11:29:01
ZACube-1 22 Nov 11:25:51 11:29:38 33° 290° (WNW) 11:33:26 437.345
NANOSAT C BR1 22 Nov 11:34:41 11:37:24 16° 268° (W) 11:40:07 145.865
ANTELSAT 22 Nov 11:35:25 11:37:02 12° 271° (W) 11:38:39 437.575/2403.000
AISAT 22 Nov 11:35:38 11:39:51 43° 290° (WNW) 11:44:01 437.250
HUMSAT D 22 Nov 11:40:48 11:44:37 36° 290° (WNW) 11:48:26 437.325/437.525
YUBILEINY 22 Nov 11:42:33 11:43:50 10° 48° (NE) 11:45:06 435.215
QB50P1 22 Nov 11:44:48 11:46:49 13° 270° (W) 11:48:50 145.935-145.965
ITAMSAT 1 22 Nov 11:51:46 11:52:33 10° 54° (NE) 11:53:20 435.822/435.867
50 SAT 22 Nov 11:57:58 12:01:25 28° 292° (WNW) 12:04:53 437.505
FUNcube-1 22 Nov 12:03:11 12:05:38 15° 297° (WNW) 12:08:06 145.935
CUBEBUG 1 22 Nov 12:04:17 12:08:36 57° 287° (WNW) 12:12:52 437.445
SO-50 22 Nov 12:04:25 12:08:10 22° 38° (NE) 12:11:57 436.795
SHINDAISAT 22 Nov 12:07:43 12:09:02 16° 312° (NW) 12:10:21 437.305
SPROUT 22 Nov 12:09:20 12:13:21 37° 98° (E) 12:17:19 437.525
CUBEBUG 2 22 Nov 12:11:32 12:11:52 10° 300° (WNW) 12:12:13 437.445
TISAT 1 22 Nov 12:12:38 12:16:43 46° 99° (E) 12:20:45 437.305
ESTCUBE 1 22 Nov 12:32:19 12:36:19 31° 293° (WNW) 12:40:18 437.505/2401.250
AUBIESAT-1 22 Nov 12:36:56 12:40:17 18° 96° (E) 12:43:36 437.475
M-CUBED/EXP-1 PRIME 22 Nov 12:38:56 12:42:36 21° 97° (E) 12:46:14 437.505
ITUPSAT 1 22 Nov 12:41:04 12:43:49 15° 90° (E) 12:46:33 437.325
Oscar 19 22 Nov 12:42:11 12:47:14 65° 72° (ENE) 12:52:19 437.125/150
SWISSCUBE 22 Nov 12:52:57 12:56:39 22° 93° (E) 13:00:19 437.505
AO-7 22 Nov 12:54:20 12:57:42 13° 39° (NE) 13:01:04 29.400- 29.500
BEESAT 22 Nov 13:24:23 13:28:55 40° 98° (E) 13:33:24 436.000
ITAMSAT 1 22 Nov 13:25:53 13:31:03 67° 72° (ENE) 13:36:15 435.822/435.867
Gurwin Techsat 1B 22 Nov 13:34:09 13:39:12 46° 69° (ENE) 13:44:16 435.225
YUBILEINY 22 Nov 13:34:50 13:43:17 50° 74° (ENE) 13:51:37 435.215
CUSAT 1 22 Nov 13:35:18 13:38:09 61° 98° (E) 13:40:44 437.405
HORYU 2 22 Nov 13:36:40 13:39:54 20° 64° (ENE) 13:43:09 437.375
DANDE 22 Nov 13:42:57 13:45:56 63° 99° (E) 13:48:34 436.750
SO-50 22 Nov 13:44:22 13:49:14 72° 238° (WSW) 13:54:06 436.795
SPROUT 22 Nov 13:45:57 13:49:13 22° 295° (WNW) 13:52:29 437.525
TISAT 1 22 Nov 13:49:23 13:52:13 18° 296° (WNW) 13:55:03 437.305
AUBIESAT-1 22 Nov 14:10:45 14:15:36 61° 292° (WNW) 14:20:25 437.475
M-CUBED/EXP-1 PRIME 22 Nov 14:13:05 14:17:53 54° 293° (WNW) 14:22:40 437.505
ITUPSAT 1 22 Nov 14:17:23 14:22:10 65° 287° (WNW) 14:26:54 437.325
JAS-2 22 Nov 14:19:48 14:22:21 12° 46° (NE) 14:24:54 435.910
Oscar 19 22 Nov 14:23:53 14:27:03 16° 270° (W) 14:30:13 437.125/150
STARS 22 Nov 14:25:33 14:29:10 24° 95° (E) 14:32:45 437.465
SWISSCUBE 22 Nov 14:30:09 14:34:43 45° 290° (WNW) 14:39:16 437.505
AO-7 22 Nov 14:40:40 14:48:31 49° 62° (ENE) 14:56:24 29.400- 29.500
KKS-1 22 Nov 14:57:02 15:01:30 77° 103° (ESE) 15:05:55 437.445
BEESAT 22 Nov 15:02:39 15:06:33 25° 295° (WNW) 15:10:26 436.000
ITAMSAT 1 22 Nov 15:07:45 15:11:01 17° 270° (W) 15:14:18 435.822/435.867
HORYU 2 22 Nov 15:12:04 15:16:17 44° 261° (W) 15:20:33 437.375
O/OREOS (USA 219) 22 Nov 15:13:18 15:16:03 16° 50° (NE) 15:18:47 437.305
Gurwin Techsat 1B 22 Nov 15:15:04 15:19:22 25° 267° (W) 15:23:42 435.225
RS-15 22 Nov 15:21:20 15:29:20 24° 101° (ESE) 15:37:16 29.354- 29.394
YUBILEINY 22 Nov 15:32:02 15:39:50 39° 275° (W) 15:47:36 435.215
AUBIESAT-1 22 Nov 15:49:13 15:49:39 10° 310° (NW) 15:50:06 437.475
MaSat-1 22 Nov 15:53:51 15:56:40 33° 113° (ESE) 15:59:15 437.345
JAS-2 22 Nov 15:58:19 16:05:30 49° 66° (ENE) 16:12:58 435.910
STARS 22 Nov 16:01:45 16:05:42 33° 292° (WNW) 16:09:38 437.465
VERMONT LUNAR 22 Nov 16:07:21 16:09:51 18° 154° (SSE) 16:12:22 437.305
CUTE-I 22 Nov 16:18:14 16:21:41 18° 59° (ENE) 16:25:09 437.470
AO-7 22 Nov 16:33:42 16:41:24 42° 261° (W) 16:49:11 29.400- 29.500
KKS-1 22 Nov 16:35:38 16:37:32 13° 301° (WNW) 16:39:26 437.445
O/OREOS (USA 219) 22 Nov 16:51:30 16:55:57 68° 249° (WSW) 17:00:23 437.305
MOZHAYETS 4 22 Nov 17:09:34 17:14:10 56° 100° (E) 17:18:45
Cubesat XI-IV 22 Nov 17:13:27 17:18:37 50° 70° (ENE) 17:23:48 437.490
PHONESAT 2.4 22 Nov 17:17:35 17:20:51 30° 162° (SSE) 17:24:08 2401.200-2431.200
RS-15 22 Nov 17:29:09 17:40:08 90° 319° (NW) 17:51:10 29.354- 29.394
MaSat-1 22 Nov 17:30:05 17:31:24 12° 307° (NW) 17:32:41 437.345
GONETS M04 22 Nov 17:30:36 17:33:39 12° 50° (NE) 17:36:42
JAS-2 22 Nov 17:43:34 17:50:33 41° 266° (W) 17:57:54 435.910
VERMONT LUNAR 22 Nov 17:44:25 17:47:51 40° 171° (S) 17:51:17 437.305
CUTE-I 22 Nov 17:55:48 18:01:10 74° 257° (WSW) 18:06:33 437.470
PRISM 22 Nov 18:10:54 18:15:01 46° 100° (E) 18:19:05 437.425
CUBESAT XI-V 22 Nov 18:39:58 18:44:20 37° 97° (E) 18:48:37 437.345
MOZHAYETS 4 22 Nov 18:47:53 18:50:58 18° 297° (WNW) 18:54:04
Cubesat XI-IV 22 Nov 18:54:45 18:58:58 23° 267° (W) 19:03:13 437.490
PHONESAT 2.4 22 Nov 18:55:44 18:59:19 46° 179° (S) 19:02:53 2401.200-2431.200
AIST 1 22 Nov 19:02:27 19:03:54 12° 82° (E) 19:05:21
CANX-2 22 Nov 19:07:43 19:10:01 15° 62° (ENE) 19:12:19 2200.000
STRAND 1 22 Nov 19:15:09 19:20:17 74° 103° (ESE) 19:25:22 437.568
HO-68 22 Nov 19:15:39 19:22:06 38° 61° (ENE) 19:28:34 435.675
GOMX 1 22 Nov 19:17:40 19:20:09 14° 62° (ENE) 19:22:34 467.674
COMPASS 1 22 Nov 19:22:34 19:24:45 14° 62° (ENE) 19:26:57 437.405
VERMONT LUNAR 22 Nov 19:22:36 19:26:04 42° 188° (S) 19:29:30 437.305
GONETS M04 22 Nov 19:24:15 19:32:56 55° 75° (ENE) 19:41:30
BRITE-PL 22 Nov 19:25:07 19:29:03 23° 66° (ENE) 19:32:47 437.365/2234.400
CUTE 1.7 & AOD 2 22 Nov 19:41:20 19:44:57 28° 68° (ENE) 19:48:35 437.475
RS-15 22 Nov 19:44:16 19:54:02 36° 331° (NNW) 20:03:58 29.354- 29.394
PRISM 22 Nov 19:47:20 19:50:14 18° 297° (WNW) 19:53:08 437.425
SHINDAISAT 22 Nov 19:47:20 19:49:10 85° 251° (WSW) 19:50:59 437.305
UKube-1 22 Nov 19:52:37 19:54:56 14° 61° (ENE) 19:57:15 .
CINEMA 3 22 Nov 19:57:34 20:00:07 15° 63° (ENE) 20:02:37 145.822/145.860
Oscar 11 22 Nov 20:05:56 20:09:01 20° 64° (ENE) 20:12:06 145.826/435.025
UWE-3 22 Nov 20:07:39 20:08:11 10° 60° (ENE) 20:08:44 435.000/436.395/437.385
PCSat 22 Nov 20:13:35 20:18:36 41° 113° (ESE) 20:23:40 145.827
BEESAT 3 22 Nov 20:17:39 20:20:01 15° 110° (ESE) 20:22:24 437.485
CUBESAT XI-V 22 Nov 20:17:46 20:21:36 26° 294° (WNW) 20:25:24 437.345
SEEDS 22 Nov 20:18:39 20:22:47 62° 74° (ENE) 20:26:57 437.485
DX 1 22 Nov 20:22:38 20:26:22 28° 67° (ENE) 20:30:08 434.975-435.025
DOVE 4 22 Nov 20:28:37 20:33:09 49° 73° (ENE) 20:37:26 437.250
BEESAT 2 22 Nov 20:29:24 20:32:14 18° 111° (ESE) 20:35:06 435.950
PHONESAT 2.4 22 Nov 20:34:27 20:37:47 31° 196° (SSW) 20:41:06 2401.200-2431.200
AIST 1 22 Nov 20:36:33 20:40:55 68° 280° (W) 20:45:21
VELOX 1 22 Nov 20:37:23 20:39:42 14° 60° (ENE) 20:42:01 145.980
CANX-2 22 Nov 20:41:20 20:45:29 59° 260° (W) 20:49:41 2200.000
AAUSAT CUBESAT 2 22 Nov 20:43:11 20:47:20 87° 76° (ENE) 20:51:32 437.432
AIST 2 22 Nov 20:47:38 20:49:57 15° 109° (ESE) 20:52:18 435.215
ZACube-1 22 Nov 20:48:09 20:51:29 23° 67° (ENE) 20:54:47 437.345
GOMX 1 22 Nov 20:52:55 20:57:49 72° 258° (WSW) 21:02:24 467.674
STRAND 1 22 Nov 20:55:46 20:58:52 16° 301° (WNW) 21:01:57 437.568
COMPASS 1 22 Nov 20:55:55 21:00:01 60° 259° (W) 21:04:10 437.405
AISAT 22 Nov 20:59:49 21:03:21 23° 65° (ENE) 21:06:52 437.250
HUMSAT D 22 Nov 21:00:10 21:03:07 19° 65° (ENE) 21:06:03 437.325/437.525
VERMONT LUNAR 22 Nov 21:01:23 21:04:05 20° 204° (SSW) 21:06:47 437.305
BRITE-PL 22 Nov 21:02:26 21:07:22 45° 261° (W) 21:11:57 437.365/2234.400
HO-68 22 Nov 21:02:45 21:09:38 48° 260° (W) 21:16:34 435.675
DELFI C3 22 Nov 21:07:30 21:11:32 70° 75° (ENE) 21:15:37 145.870
50 SAT 22 Nov 21:13:53 21:17:00 22° 66° (ENE) 21:20:07 437.505
CUTE 1.7 & AOD 2 22 Nov 21:17:17 21:20:51 27° 265° (W) 21:24:27 437.475
GONETS M04 22 Nov 21:21:39 21:29:21 36° 276° (W) 21:37:01
FUNcube-1 22 Nov 21:23:21 21:27:28 53° 73° (ENE) 21:31:32 145.935
UKube-1 22 Nov 21:26:16 21:30:35 66° 258° (WSW) 21:34:57 .
CUBEBUG 1 22 Nov 21:27:41 21:30:30 17° 62° (ENE) 21:33:18 437.445
CUBEBUG 2 22 Nov 21:31:42 21:36:01 89° 76° (ENE) 21:40:15 437.445
CINEMA 3 22 Nov 21:32:32 21:36:57 58° 259° (W) 21:41:12 145.822/145.860
UWE-3 22 Nov 21:39:50 21:44:07 86° 257° (WSW) 21:48:20 435.000/436.395/437.385
Oscar 11 22 Nov 21:40:48 21:44:53 43° 262° (W) 21:49:01 145.826/435.025
ANTELSAT 22 Nov 21:47:56 21:49:46 12° 90° (E) 21:51:35 437.575/2403.000
BEESAT 3 22 Nov 21:53:42 21:57:46 59° 308° (NW) 22:01:55 437.485
ESTCUBE 1 22 Nov 21:56:58 22:01:02 33° 68° (ENE) 22:05:07 437.505/2401.250
PCSat 22 Nov 21:57:09 22:02:05 35° 312° (NW) 22:07:03 145.827
SEEDS 22 Nov 21:57:20 21:59:03 12° 271° (W) 22:00:46 437.485
DX 1 22 Nov 21:58:42 22:02:33 30° 264° (W) 22:06:25 434.975-435.025
RS-15 22 Nov 22:01:57 22:10:44 26° 6° (N) 22:19:44 29.354- 29.394
BEESAT 2 22 Nov 22:06:09 22:10:10 50° 309° (NW) 22:14:16 435.950
DOVE 4 22 Nov 22:08:01 22:11:09 18° 268° (W) 22:14:12 437.250
VELOX 1 22 Nov 22:11:16 22:15:44 70° 258° (WSW) 22:20:14 145.980
PHONESAT 2.4 22 Nov 22:14:57 22:15:54 11° 212° (SSW) 22:16:51 2401.200-2431.200
POPSAT HIP 1 22 Nov 22:15:49 22:18:25 16° 91° (E) 22:21:02 437.405
BUGSAT 1 22 Nov 22:22:03 22:24:24 15° 91° (E) 22:26:44 437.445
AIST 2 22 Nov 22:23:51 22:28:04 65° 307° (NW) 22:32:22 435.215
ZACube-1 22 Nov 22:23:52 22:27:43 33° 263° (W) 22:31:32 437.345
HUMSAT D 22 Nov 22:34:46 22:38:41 40° 262° (W) 22:42:35 437.325/437.525
AISAT 22 Nov 22:35:35 22:39:46 38° 262° (W) 22:43:59 437.250
TIGRISAT 22 Nov 22:42:51 22:47:03 44° 99° (E) 22:51:19 435.000
POLYITAN 1 22 Nov 22:46:06 22:49:57 33° 97° (E) 22:53:47 437.675
DELFI C3 22 Nov 22:46:52 22:47:20 10° 272° (W) 22:47:49 145.870
50 SAT 22 Nov 22:48:30 22:52:09 33° 263° (W) 22:55:50 437.505
QB50P2 22 Nov 22:49:36 22:53:32 37° 98° (E) 22:57:27 145.880/145.840
UNISAT 6 22 Nov 22:54:18 22:58:40 60° 101° (E) 23:03:06 437.425
DUCHIFAT 1 22 Nov 22:58:02 23:02:05 44° 99° (E) 23:06:06 145.980
FUNcube-1 22 Nov 23:01:50 23:04:09 14° 269° (W) 23:06:27 145.935
CUBEBUG 1 22 Nov 23:02:04 23:06:27 56° 259° (W) 23:10:51 437.445
SPROUT 22 Nov 23:05:19 23:09:17 36° 70° (ENE) 23:13:15 437.525
TISAT 1 22 Nov 23:06:54 23:10:58 44° 71° (ENE) 23:15:02 437.305
NANOSAT C BR1 22 Nov 23:16:43 23:20:57 73° 102° (ESE) 23:25:09 145.865
ANTELSAT 22 Nov 23:22:38 23:27:01 69° 286° (WNW) 23:31:29 437.575/2403.000
QB50P1 22 Nov 23:26:05 23:30:20 88° 284° (WNW) 23:34:33 145.935-145.965
AUBIESAT-1 22 Nov 23:28:00 23:31:23 26° 60° (ENE) 23:35:01 437.475
M-CUBED/EXP-1 PRIME 22 Nov 23:30:27 23:33:57 30° 61° (ENE) 23:37:45 437.505
ESTCUBE 1 22 Nov 23:34:05 23:37:56 27° 265° (W) 23:41:49 437.505/2401.250
BEESAT 3 22 Nov 23:35:26 23:36:54 12° 328° (NNW) 23:38:23 437.485
BEESAT 2 22 Nov 23:48:43 23:49:29 10° 330° (NNW) 23:50:15 435.950
ITUPSAT 1 22 Nov 23:49:26 23:53:06 22° 63° (ENE) 23:56:48 437.325
POPSAT HIP 1 22 Nov 23:50:33 23:54:37 48° 288° (WNW) 23:58:40 437.405
ISS 22 Nov 23:53:14 23:54:28 12° 131° (SE) 23:55:41 145.825
BUGSAT 1 22 Nov 23:56:14 00:00:13 48° 288° (WNW) 00:04:08 437.445
SWISSCUBE 23 Nov 00:01:13 00:05:24 31° 66° (ENE) 00:09:36 437.505
AIST 2 23 Nov 00:05:38 00:07:34 13° 328° (NNW) 00:09:31 435.215
CUSAT 1 23 Nov 00:09:58 00:14:03 60° 79° (E) 00:19:34 437.405
RS-15 23 Nov 00:16:10 00:26:48 47° 39° (NE) 00:37:48 29.354- 29.394
DANDE 23 Nov 00:19:53 00:23:49 62° 79° (E) 00:29:10 436.750
TIGRISAT 23 Nov 00:20:23 00:23:32 20° 295° (WNW) 00:26:43 435.000
POLYITAN 1 23 Nov 00:22:24 00:25:45 23° 294° (WNW) 00:29:06 437.675
KKS-1 23 Nov 00:24:38 00:25:24 10° 58° (ENE) 00:26:09 437.445
QB50P2 23 Nov 00:26:02 00:29:16 22° 295° (WNW) 00:32:29 145.880/145.840
UNISAT 6 23 Nov 00:32:28 00:35:02 15° 298° (WNW) 00:37:37 437.425
BEESAT 23 Nov 00:32:31 00:37:11 55° 72° (ENE) 00:41:53 436.000
DUCHIFAT 1 23 Nov 00:34:45 00:37:39 18° 296° (WNW) 00:40:32 145.980
SPROUT 23 Nov 00:42:07 00:45:29 22° 266° (W) 00:48:51 437.525
TISAT 1 23 Nov 00:44:05 00:47:01 18° 268° (W) 00:49:58 437.305
Oscar 19 23 Nov 00:52:55 00:56:43 20° 92° (E) 01:00:29 437.125/150
NANOSAT C BR1 23 Nov 00:54:36 00:56:15 12° 300° (WNW) 00:57:55 145.865
AUBIESAT-1 23 Nov 01:02:43 01:06:16 31° 260° (W) 01:10:09 437.475
M-CUBED/EXP-1 PRIME 23 Nov 01:05:38 01:09:01 27° 261° (W) 01:12:41 437.505
STARS 23 Nov 01:24:33 01:28:17 28° 67° (ENE) 01:32:02 437.465
ITUPSAT 1 23 Nov 01:26:05 01:30:42 46° 261° (W) 01:35:22 437.325
ISS 23 Nov 01:27:20 01:30:37 83° 147° (SSE) 01:33:56 145.825
MaSat-1 23 Nov 01:31:26 01:33:45 69° 244° (WSW) 01:36:05 437.345
ITAMSAT 1 23 Nov 01:38:01 01:41:51 21° 92° (E) 01:45:40 435.822/435.867
SWISSCUBE 23 Nov 01:38:55 01:43:12 32° 264° (W) 01:47:32 437.505
Gurwin Techsat 1B 23 Nov 01:49:54 01:53:05 16° 89° (E) 01:56:15 435.225
CUSAT 1 23 Nov 01:54:39 01:57:07 15° 268° (W) 01:59:54 437.405
KKS-1 23 Nov 01:56:50 02:01:18 85° 75° (ENE) 02:05:47 437.445
DANDE 23 Nov 02:05:16 02:07:14 13° 268° (W) 02:09:25 436.750
BEESAT 23 Nov 02:12:12 02:15:23 18° 269° (W) 02:18:34 436.000
RS-15 23 Nov 02:28:44 02:39:44 65° 244° (WSW) 02:51:15 29.354- 29.394
Oscar 19 23 Nov 02:31:21 02:36:22 54° 289° (WNW) 02:41:23 437.125/150
YUBILEINY 23 Nov 02:37:27 02:45:54 55° 90° (E) 02:54:22 435.215
AO-7 23 Nov 02:43:48 02:46:18 11° 84° (E) 02:48:47 29.400- 29.500
STARS 23 Nov 03:00:48 03:04:42 30° 264° (W) 03:08:37 437.465
HORYU 2 23 Nov 03:02:06 03:06:06 31° 96° (E) 03:10:05 437.375
ISS 23 Nov 03:04:41 03:07:34 27° 347° (NNW) 03:10:28 145.825
ITAMSAT 1 23 Nov 03:16:37 03:21:40 53° 290° (WNW) 03:26:40 435.822/435.867
PCSat 23 Nov 03:17:52 03:20:01 12° 30° (NNE) 03:22:10 145.827
Gurwin Techsat 1B 23 Nov 03:28:17 03:33:35 71° 287° (WNW) 03:38:52 435.225
SO-50 23 Nov 04:01:28 04:05:08 25° 113° (ESE) 04:08:54 436.795
MOZHAYETS 4 23 Nov 04:13:08 04:17:40 63° 74° (ENE) 04:22:15
AO-7 23 Nov 04:32:25 04:40:43 63° 104° (ESE) 04:48:59 29.400- 29.500
BEESAT 3 23 Nov 04:34:41 04:37:54 21° 41° (NE) 04:41:05 437.485
YUBILEINY 23 Nov 04:35:05 04:43:02 37° 291° (WNW) 04:51:00 435.215
HORYU 2 23 Nov 04:38:53 04:42:42 28° 293° (WNW) 04:46:32 437.375
ISS 23 Nov 04:42:10 04:44:55 23° 7° (N) 04:47:40 145.825
RS-15 23 Nov 04:44:41 04:49:49 14° 265° (W) 04:55:04 29.354- 29.394
BEESAT 2 23 Nov 04:47:10 04:50:37 24° 42° (NE) 04:54:02 435.950
JAS-2 23 Nov 04:52:06 04:58:40 35° 93° (E) 05:04:33 435.910
STRAND 1 23 Nov 04:55:45 04:59:10 18° 60° (ENE) 05:02:36 437.568
PCSat 23 Nov 04:59:34 05:04:50 48° 52° (NE) 05:10:03 145.827
PRISM 23 Nov 05:03:24 05:07:23 43° 70° (ENE) 05:11:24 437.425
AIST 2 23 Nov 05:06:32 05:09:50 21° 40° (NE) 05:13:07 435.215
Gurwin Techsat 1B 23 Nov 05:11:06 05:12:36 11° 306° (NW) 05:14:06 435.225
O/OREOS (USA 219) 23 Nov 05:29:46 05:30:52 11° 97° (E) 05:31:58 437.305
Cubesat XI-IV 23 Nov 05:30:16 05:33:42 17° 90° (E) 05:37:07 437.490
SO-50 23 Nov 05:41:05 05:45:26 44° 312° (NW) 05:49:57 436.795
CUBESAT XI-V 23 Nov 05:44:57 05:49:25 44° 71° (ENE) 05:53:55 437.345
MOZHAYETS 4 23 Nov 05:52:53 05:55:20 14° 271° (W) 05:57:48
CUTE-I 23 Nov 06:11:33 06:16:32 39° 98° (E) 06:21:28 437.470
BEESAT 3 23 Nov 06:12:20 06:16:28 56° 240° (WSW) 06:20:32 437.485
ISS 23 Nov 06:18:46 06:22:02 58° 27° (NNE) 06:25:18 145.825
BEESAT 2 23 Nov 06:25:05 06:29:07 46° 241° (WSW) 06:33:07 435.950
AO-7 23 Nov 06:25:48 06:33:02 34° 304° (NW) 06:40:17 29.400- 29.500
STRAND 1 23 Nov 06:32:43 06:37:50 67° 258° (WSW) 06:42:59 437.568
JAS-2 23 Nov 06:36:54 06:43:53 47° 294° (WNW) 06:50:07 435.910
GONETS M04 23 Nov 06:38:55 06:40:40 11° 70° (ENE) 06:42:25
PRISM 23 Nov 06:40:18 06:43:09 18° 268° (W) 06:46:02 437.425
AIST 1 23 Nov 06:42:31 06:46:33 34° 75° (ENE) 06:50:31
PCSat 23 Nov 06:43:27 06:47:59 28° 251° (WSW) 06:52:30 145.827
AIST 2 23 Nov 06:44:35 06:48:50 59° 240° (WSW) 06:53:01 435.215
O/OREOS (USA 219) 23 Nov 07:05:05 07:09:35 79° 294° (WNW) 07:14:05 437.305
Cubesat XI-IV 23 Nov 07:08:59 07:14:17 66° 288° (WNW) 07:19:32 437.490
CUBESAT XI-V 23 Nov 07:23:28 07:27:04 21° 268° (W) 07:30:41 437.345
SO-50 23 Nov 07:25:47 07:27:15 11° 334° (NNW) 07:28:44 436.795
CUTE-I 23 Nov 07:51:53 07:56:28 30° 295° (WNW) 08:01:01 437.470
ISS 23 Nov 07:55:52 07:58:28 21° 224° (SW) 08:01:03 145.825
AIST 1 23 Nov 08:20:37 08:24:00 22° 273° (W) 08:27:21
JAS-2 23 Nov 08:25:37 08:26:59 11° 316° (NW) 08:28:19 435.910
CANX-2 23 Nov 08:25:58 08:29:16 21° 93° (E) 08:32:33 2200.000
GONETS M04 23 Nov 08:26:53 08:35:26 60° 91° (E) 08:44:04
AAUSAT CUBESAT 2 23 Nov 08:27:06 08:29:03 13° 90° (E) 08:31:00 437.432
HO-68 23 Nov 08:28:39 08:34:55 32° 95° (E) 08:41:08 435.675
COMPASS 1 23 Nov 08:39:08 08:42:17 20° 93° (E) 08:45:24 437.405
O/OREOS (USA 219) 23 Nov 08:48:23 08:49:47 11° 314° (NW) 08:51:10 437.305
ANTELSAT 23 Nov 08:49:24 08:51:38 14° 61° (ENE) 08:53:52 437.575/2403.000
Cubesat XI-IV 23 Nov 08:52:23 08:53:21 11° 307° (NW) 08:54:20 437.490
GOMX 1 23 Nov 08:53:45 08:57:12 25° 95° (E) 09:00:41 467.674
CUTE 1.7 & AOD 2 23 Nov 09:00:28 09:04:36 45° 99° (E) 09:08:42 437.475
BRITE-PL 23 Nov 09:05:41 09:09:43 46° 99° (E) 09:13:43 437.365/2234.400
POPSAT HIP 1 23 Nov 09:11:03 09:13:45 17° 63° (ENE) 09:16:27 437.405
UKube-1 23 Nov 09:13:36 09:16:38 18° 93° (E) 09:19:39 .
BUGSAT 1 23 Nov 09:14:29 09:16:58 15° 62° (ENE) 09:19:27 437.445
CUBEBUG 2 23 Nov 09:22:32 09:25:06 16° 92° (E) 09:27:41 437.445
CINEMA 3 23 Nov 09:26:12 09:29:45 26° 95° (E) 09:33:21 145.822/145.860
Oscar 11 23 Nov 09:26:44 09:30:33 29° 96° (E) 09:34:21 145.826/435.025
UWE-3 23 Nov 09:29:26 09:32:05 16° 92° (E) 09:34:45 435.000/436.395/437.385
